contact:dominique.lefevre@mio.osupytheas.fr, maurice.libes@osupytheas.fr, didier.mallarino@osupytheas.fr
Project:EMSO http://www.emso-fr.org/EMSO-France
Depth: 2436.0 m
Title:EMSO Ligure Ouest : Data MII capteur MICROCAT
DateTime_Computer,Latitude,Longitude,Temperature,Conductivity,Pressure,DateTime_Instrument
DateTime_Computer,Latitude,Longitude,degC,S m-1,dbar,DateTime_Instrument
2020-08-04T00:02:47Z,42.805,6.029,13.2975,4.59988,2470.11,2020-8-04T02:03:36Z
2020-08-04T00:05:51Z,42.805,6.029,13.2979,4.59994,2470.087,2020-8-04T02:06:39Z
2020-08-04T00:08:54Z,42.805,6.029,13.2981,4.59995,2470.063,2020-8-04T02:09:42Z
2020-08-04T00:11:57Z,42.805,6.029,13.2977,4.60003,2470.087,2020-8-04T02:12:45Z
2020-08-04T00:15:00Z,42.805,6.029,13.2978,4.59992,2470.124,2020-8-04T02:15:49Z
2020-08-04T00:18:04Z,42.805,6.029,13.2983,4.60002,2470.087,2020-8-04T02:18:52Z
2020-08-04T00:21:07Z,42.805,6.029,13.2980,4.60000,2470.053,2020-8-04T02:21:55Z
2020-08-04T00:24:10Z,42.805,6.029,13.2982,4.60014,2470.073,2020-8-04T02:24:58Z
2020-08-04T00:27:14Z,42.805,6.029,13.2990,4.60001,2470.087,2020-8-04T02:28:02Z
2020-08-04T00:30:17Z,42.805,6.029,13.2984,4.60000,2470.1,2020-8-04T02:31:05Z
2020-08-04T00:33:20Z,42.805,6.029,13.2974,4.59997,2470.063,2020-8-04T02:34:08Z
2020-08-04T00:36:23Z,42.805,6.029,13.2980,4.59995,2470.063,2020-8-04T02:37:11Z
2020-08-04T00:39:26Z,42.805,6.029,13.2979,4.59995,2470.063,2020-8-04T02:40:15Z
2020-08-04T00:42:30Z,42.805,6.029,13.2977,4.59998,2470.087,2020-8-04T02:43:18Z
2020-08-04T00:45:33Z,42.805,6.029,13.2979,4.59997,2470.063,2020-8-04T02:46:21Z
2020-08-04T00:48:36Z,42.805,6.029,13.2976,4.60001,2470.1,2020-8-04T02:49:24Z
2020-08-04T00:51:39Z,42.805,6.029,13.2982,4.60006,2470.063,2020-8-04T02:52:27Z
2020-08-04T00:54:42Z,42.805,6.029,13.2975,4.59990,2470.063,2020-8-04T02:55:31Z
2020-08-04T00:57:46Z,42.805,6.029,13.2979,4.59992,2470.04,2020-8-04T02:58:34Z
2020-08-04T01:00:49Z,42.805,6.029,13.2974,4.59995,2470.063,2020-8-04T03:01:38Z
2020-08-04T01:03:52Z,42.805,6.029,13.2979,4.59992,2470.063,2020-8-04T03:04:41Z
2020-08-04T01:06:56Z,42.805,6.029,13.2982,4.59993,2470.063,2020-8-04T03:07:44Z
2020-08-04T01:09:59Z,42.805,6.029,13.2974,4.60003,2470.063,2020-8-04T03:10:47Z
2020-08-04T01:13:02Z,42.805,6.029,13.2977,4.60001,2470.04,2020-8-04T03:13:50Z
2020-08-04T01:16:05Z,42.805,6.029,13.2980,4.59993,2470.077,2020-8-04T03:16:54Z
2020-08-04T01:19:09Z,42.805,6.029,13.2979,4.59995,2470.077,2020-8-04T03:19:57Z
2020-08-04T01:22:12Z,42.805,6.029,13.2985,4.59998,2470.04,2020-8-04T03:23:00Z
2020-08-04T01:25:15Z,42.805,6.029,13.2983,4.59992,2470.053,2020-8-04T03:26:03Z
2020-08-04T01:28:18Z,42.805,6.029,13.2984,4.60011,2470.063,2020-8-04T03:29:07Z
2020-08-04T01:31:21Z,42.805,6.029,13.2979,4.60014,2470.077,2020-8-04T03:32:10Z
2020-08-04T01:34:25Z,42.805,6.029,13.2976,4.60010,2470.04,2020-8-04T03:35:13Z
2020-08-04T01:37:28Z,42.805,6.029,13.2978,4.60002,2470.053,2020-8-04T03:38:16Z
2020-08-04T01:40:31Z,42.805,6.029,13.2972,4.59979,2470.017,2020-8-04T03:41:19Z
2020-08-04T01:43:34Z,42.805,6.029,13.2979,4.60001,2470.053,2020-8-04T03:44:23Z
2020-08-04T01:46:38Z,42.805,6.029,13.2984,4.59999,2470.03,2020-8-04T03:47:26Z
2020-08-04T01:49:41Z,42.805,6.029,13.2976,4.60001,2470.04,2020-8-04T03:50:29Z
2020-08-04T01:52:44Z,42.805,6.029,13.2985,4.59997,2470.053,2020-8-04T03:53:32Z
2020-08-04T01:55:47Z,42.805,6.029,13.2982,4.59999,2470.067,2020-8-04T03:56:36Z
2020-08-04T01:58:51Z,42.805,6.029,13.2979,4.59981,2470.017,2020-8-04T03:59:39Z
2020-08-04T02:01:54Z,42.805,6.029,13.2975,4.59992,2470.017,2020-8-04T04:02:42Z
2020-08-04T02:04:57Z,42.805,6.029,13.2979,4.60003,2470.04,2020-8-04T04:05:45Z
2020-08-04T02:08:00Z,42.805,6.029,13.2981,4.59996,2470.017,2020-8-04T04:08:48Z
2020-08-04T02:11:03Z,42.805,6.029,13.2982,4.59998,2469.993,2020-8-04T04:11:52Z
2020-08-04T02:14:07Z,42.805,6.029,13.2978,4.59996,2470.007,2020-8-04T04:14:55Z
2020-08-04T02:17:10Z,42.805,6.029,13.2977,4.59999,2470.017,2020-8-04T04:17:58Z
2020-08-04T02:20:13Z,42.805,6.029,13.2979,4.59986,2470.063,2020-8-04T04:21:02Z
2020-08-04T02:23:17Z,42.805,6.029,13.2979,4.59996,2470.063,2020-8-04T04:24:05Z
2020-08-04T02:26:20Z,42.805,6.029,13.2983,4.60001,2470.04,2020-8-04T04:27:08Z
2020-08-04T02:29:23Z,42.805,6.029,13.2981,4.59997,2470.017,2020-8-04T04:30:11Z
2020-08-04T02:32:26Z,42.805,6.029,13.2977,4.60005,2470.017,2020-8-04T04:33:15Z
2020-08-04T02:35:29Z,42.805,6.029,13.2991,4.59999,2470.017,2020-8-04T04:36:18Z
2020-08-04T02:38:33Z,42.805,6.029,13.2977,4.59996,2470.053,2020-8-04T04:39:21Z
2020-08-04T02:41:36Z,42.805,6.029,13.2975,4.59996,2470.03,2020-8-04T04:42:24Z
2020-08-04T02:44:39Z,42.805,6.029,13.2979,4.60005,2470.017,2020-8-04T04:45:27Z
2020-08-04T02:47:42Z,42.805,6.029,13.2979,4.59999,2469.993,2020-8-04T04:48:31Z
2020-08-04T02:50:46Z,42.805,6.029,13.2982,4.60007,2469.993,2020-8-04T04:51:34Z
2020-08-04T02:53:49Z,42.805,6.029,13.2979,4.60003,2470.007,2020-8-04T04:54:37Z
2020-08-04T02:56:52Z,42.805,6.029,13.2976,4.60005,2470.03,2020-8-04T04:57:41Z
2020-08-04T02:59:55Z,42.805,6.029,13.2977,4.59992,2470.03,2020-8-04T05:00:44Z
2020-08-04T03:02:59Z,42.805,6.029,13.2979,4.60002,2469.993,2020-8-04T05:03:47Z
2020-08-04T03:06:02Z,42.805,6.029,13.2982,4.60003,2470.04,2020-8-04T05:06:50Z
2020-08-04T03:09:05Z,42.805,6.029,13.2983,4.59986,2470.03,2020-8-04T05:09:53Z
2020-08-04T03:12:08Z,42.805,6.029,13.2976,4.60003,2469.993,2020-8-04T05:12:57Z
2020-08-04T03:15:12Z,42.805,6.029,13.2982,4.60003,2470.007,2020-8-04T05:16:00Z
2020-08-04T03:18:15Z,42.805,6.029,13.2979,4.59996,2470.04,2020-8-04T05:19:03Z
2020-08-04T03:21:18Z,42.805,6.029,13.2973,4.59991,2469.993,2020-8-04T05:22:06Z
2020-08-04T03:24:21Z,42.805,6.029,13.2976,4.59984,2470.04,2020-8-04T05:25:10Z
2020-08-04T03:27:24Z,42.805,6.029,13.2976,4.59996,2470.017,2020-8-04T05:28:13Z
2020-08-04T03:30:28Z,42.805,6.029,13.2979,4.60003,2470.017,2020-8-04T05:31:16Z
2020-08-04T03:33:31Z,42.805,6.029,13.2982,4.60000,2469.993,2020-8-04T05:34:19Z
2020-08-04T03:36:34Z,42.805,6.029,13.2977,4.59991,2470.017,2020-8-04T05:37:23Z
2020-08-04T03:39:37Z,42.805,6.029,13.2976,4.59993,2470.053,2020-8-04T05:40:26Z
2020-08-04T03:42:41Z,42.805,6.029,13.2980,4.60001,2470.053,2020-8-04T05:43:29Z
2020-08-04T03:45:44Z,42.805,6.029,13.2977,4.60004,2470.063,2020-8-04T05:46:32Z
2020-08-04T03:48:47Z,42.805,6.029,13.2975,4.60002,2470.017,2020-8-04T05:49:36Z
2020-08-04T03:51:51Z,42.805,6.029,13.2979,4.59989,2470.04,2020-8-04T05:52:39Z
2020-08-04T03:54:54Z,42.805,6.029,13.2979,4.59993,2470.017,2020-8-04T05:55:42Z
2020-08-04T03:57:57Z,42.805,6.029,13.2979,4.60013,2470.04,2020-8-04T05:58:46Z
2020-08-04T04:01:00Z,42.805,6.029,13.2983,4.60008,2470.017,2020-8-04T06:01:49Z
2020-08-04T04:04:04Z,42.805,6.029,13.2983,4.60011,2470.04,2020-8-04T06:04:52Z
2020-08-04T04:07:07Z,42.805,6.029,13.2987,4.59997,2470.053,2020-8-04T06:07:55Z
2020-08-04T04:10:10Z,42.805,6.029,13.2978,4.60011,2470.04,2020-8-04T06:10:58Z
2020-08-04T04:13:13Z,42.805,6.029,13.2981,4.60008,2470.04,2020-8-04T06:14:02Z
2020-08-04T04:16:17Z,42.805,6.029,13.2979,4.59998,2470.063,2020-8-04T06:17:05Z
2020-08-04T04:19:20Z,42.805,6.029,13.2976,4.59996,2470.053,2020-8-04T06:20:08Z
2020-08-04T04:22:23Z,42.805,6.029,13.2990,4.59994,2470.04,2020-8-04T06:23:11Z
2020-08-04T04:25:26Z,42.805,6.029,13.2981,4.59998,2470.04,2020-8-04T06:26:15Z
2020-08-04T04:28:29Z,42.805,6.029,13.2974,4.59981,2470.063,2020-8-04T06:29:18Z
2020-08-04T04:31:33Z,42.805,6.029,13.2976,4.59991,2470.063,2020-8-04T06:32:21Z
2020-08-04T04:34:36Z,42.805,6.029,13.2978,4.59993,2470.063,2020-8-04T06:35:24Z
2020-08-04T04:37:39Z,42.805,6.029,13.2985,4.60003,2470.087,2020-8-04T06:38:27Z
2020-08-04T04:40:42Z,42.805,6.029,13.2978,4.60006,2470.063,2020-8-04T06:41:31Z
2020-08-04T04:43:45Z,42.805,6.029,13.2982,4.60009,2470.053,2020-8-04T06:44:34Z
2020-08-04T04:46:49Z,42.805,6.029,13.2988,4.60003,2470.124,2020-8-04T06:47:37Z
2020-08-04T04:49:52Z,42.805,6.029,13.2982,4.60003,2470.087,2020-8-04T06:50:40Z
2020-08-04T04:52:55Z,42.805,6.029,13.2990,4.60000,2470.087,2020-8-04T06:53:43Z
2020-08-04T04:55:58Z,42.805,6.029,13.2981,4.59991,2470.077,2020-8-04T06:56:47Z
2020-08-04T04:59:02Z,42.805,6.029,13.2979,4.59991,2470.077,2020-8-04T06:59:50Z
2020-08-04T05:02:05Z,42.805,6.029,13.2979,4.59997,2470.1,2020-8-04T07:02:54Z
2020-08-04T05:05:08Z,42.805,6.029,13.2981,4.59997,2470.077,2020-8-04T07:05:57Z
2020-08-04T05:08:12Z,42.805,6.029,13.2972,4.60000,2470.1,2020-8-04T07:09:00Z
2020-08-04T05:11:15Z,42.805,6.029,13.2982,4.59998,2470.077,2020-8-04T07:12:03Z
2020-08-04T05:14:18Z,42.805,6.029,13.2982,4.59996,2470.087,2020-8-04T07:15:06Z
2020-08-04T05:17:21Z,42.805,6.029,13.2979,4.60001,2470.087,2020-8-04T07:18:10Z
2020-08-04T05:20:24Z,42.805,6.029,13.2984,4.59999,2470.1,2020-8-04T07:21:13Z
2020-08-04T05:23:28Z,42.805,6.029,13.2980,4.59994,2470.11,2020-8-04T07:24:16Z
2020-08-04T05:26:31Z,42.805,6.029,13.2982,4.59994,2470.11,2020-8-04T07:27:19Z
2020-08-04T05:29:34Z,42.805,6.029,13.2983,4.59992,2470.11,2020-8-04T07:30:23Z
2020-08-04T05:32:38Z,42.805,6.029,13.2981,4.60003,2470.1,2020-8-04T07:33:26Z
2020-08-04T05:35:41Z,42.805,6.029,13.2975,4.59999,2470.1,2020-8-04T07:36:29Z
2020-08-04T05:38:44Z,42.805,6.029,13.2983,4.60003,2470.11,2020-8-04T07:39:32Z
2020-08-04T05:41:47Z,42.805,6.029,13.2986,4.60018,2470.087,2020-8-04T07:42:35Z
2020-08-04T05:44:50Z,42.805,6.029,13.2979,4.59996,2470.11,2020-8-04T07:45:39Z
2020-08-04T05:47:54Z,42.805,6.029,13.2979,4.60003,2470.147,2020-8-04T07:48:42Z
2020-08-04T05:50:57Z,42.805,6.029,13.2982,4.60008,2470.147,2020-8-04T07:51:45Z
2020-08-04T05:54:00Z,42.805,6.029,13.2983,4.60001,2470.11,2020-8-04T07:54:49Z
2020-08-04T05:57:04Z,42.805,6.029,13.2982,4.59994,2470.124,2020-8-04T07:57:52Z
2020-08-04T06:00:07Z,42.805,6.029,13.2977,4.59990,2470.087,2020-8-04T08:00:55Z
2020-08-04T06:03:10Z,42.805,6.029,13.2974,4.59992,2470.11,2020-8-04T08:03:58Z
2020-08-04T06:06:13Z,42.805,6.029,13.2980,4.60000,2470.133,2020-8-04T08:07:02Z
2020-08-04T06:09:17Z,42.805,6.029,13.2983,4.59999,2470.133,2020-8-04T08:10:05Z
2020-08-04T06:12:20Z,42.805,6.029,13.2986,4.60002,2470.11,2020-8-04T08:13:08Z
2020-08-04T06:15:23Z,42.805,6.029,13.2982,4.60014,2470.124,2020-8-04T08:16:11Z
2020-08-04T06:18:26Z,42.805,6.029,13.2978,4.60010,2470.1,2020-8-04T08:19:15Z
2020-08-04T06:21:30Z,42.805,6.029,13.2980,4.60019,2470.171,2020-8-04T08:22:18Z
2020-08-04T06:24:33Z,42.805,6.029,13.2982,4.60015,2470.11,2020-8-04T08:25:21Z
2020-08-04T06:27:36Z,42.805,6.029,13.2978,4.59999,2470.11,2020-8-04T08:28:25Z
2020-08-04T06:30:39Z,42.805,6.029,13.2977,4.60007,2470.133,2020-8-04T08:31:28Z
2020-08-04T06:33:43Z,42.805,6.029,13.2974,4.60005,2470.11,2020-8-04T08:34:31Z
2020-08-04T06:36:46Z,42.805,6.029,13.2982,4.59987,2470.124,2020-8-04T08:37:34Z
2020-08-04T06:39:49Z,42.805,6.029,13.2982,4.60006,2470.11,2020-8-04T08:40:37Z
2020-08-04T06:42:52Z,42.805,6.029,13.2979,4.60002,2470.156,2020-8-04T08:43:41Z
2020-08-04T06:45:56Z,42.805,6.029,13.2981,4.60008,2470.156,2020-8-04T08:46:44Z
2020-08-04T06:48:59Z,42.805,6.029,13.2976,4.59988,2470.133,2020-8-04T08:49:47Z
2020-08-04T06:52:02Z,42.805,6.029,13.3000,4.60002,2470.147,2020-8-04T08:52:50Z
2020-08-04T06:55:05Z,42.805,6.029,13.2979,4.59991,2470.171,2020-8-04T08:55:54Z
2020-08-04T06:58:08Z,42.805,6.029,13.2986,4.59999,2470.133,2020-8-04T08:58:57Z
2020-08-04T07:01:12Z,42.805,6.029,13.2979,4.60005,2470.156,2020-8-04T09:02:00Z
2020-08-04T07:04:15Z,42.805,6.029,13.2976,4.59999,2470.147,2020-8-04T09:05:03Z
2020-08-04T07:07:18Z,42.805,6.029,13.2980,4.59997,2470.124,2020-8-04T09:08:06Z
2020-08-04T07:10:21Z,42.805,6.029,13.2979,4.59994,2470.147,2020-8-04T09:11:10Z
2020-08-04T07:13:25Z,42.805,6.029,13.2983,4.60005,2470.11,2020-8-04T09:14:13Z
2020-08-04T07:16:28Z,42.805,6.029,13.2979,4.60004,2470.133,2020-8-04T09:17:16Z
2020-08-04T07:19:31Z,42.805,6.029,13.2981,4.60005,2470.124,2020-8-04T09:20:19Z
2020-08-04T07:22:34Z,42.805,6.029,13.2979,4.60001,2470.156,2020-8-04T09:23:23Z
2020-08-04T07:25:38Z,42.805,6.029,13.2979,4.60006,2470.124,2020-8-04T09:26:26Z
2020-08-04T07:28:41Z,42.805,6.029,13.2982,4.60010,2470.133,2020-8-04T09:29:29Z
2020-08-04T07:31:45Z,42.805,6.029,13.2977,4.59991,2470.156,2020-8-04T09:32:33Z
2020-08-04T07:34:48Z,42.805,6.029,13.2976,4.59996,2470.133,2020-8-04T09:35:36Z
2020-08-04T07:37:51Z,42.805,6.029,13.2987,4.60010,2470.133,2020-8-04T09:38:39Z
2020-08-04T07:40:54Z,42.805,6.029,13.2976,4.60008,2470.147,2020-8-04T09:41:43Z
2020-08-04T07:43:57Z,42.805,6.029,13.2982,4.59988,2470.171,2020-8-04T09:44:46Z
2020-08-04T07:47:01Z,42.805,6.029,13.2985,4.60009,2470.133,2020-8-04T09:47:49Z
2020-08-04T07:50:04Z,42.805,6.029,13.2988,4.60009,2470.133,2020-8-04T09:50:52Z
2020-08-04T07:53:07Z,42.805,6.029,13.2984,4.60004,2470.133,2020-8-04T09:53:56Z
2020-08-04T07:56:10Z,42.805,6.029,13.2982,4.60010,2470.171,2020-8-04T09:56:59Z
2020-08-04T07:59:14Z,42.805,6.029,13.2986,4.60003,2470.11,2020-8-04T10:00:02Z
2020-08-04T08:02:17Z,42.805,6.029,13.2991,4.60003,2470.11,2020-8-04T10:03:05Z
2020-08-04T08:05:20Z,42.805,6.029,13.2984,4.59999,2470.133,2020-8-04T10:06:09Z
2020-08-04T08:08:23Z,42.805,6.029,13.2983,4.59999,2470.133,2020-8-04T10:09:12Z
2020-08-04T08:11:27Z,42.805,6.029,13.2975,4.60003,2470.156,2020-8-04T10:12:15Z
2020-08-04T08:14:30Z,42.805,6.029,13.2977,4.59994,2470.124,2020-8-04T10:15:18Z
2020-08-04T08:17:33Z,42.805,6.029,13.2982,4.60005,2470.133,2020-8-04T10:18:22Z
2020-08-04T08:20:37Z,42.805,6.029,13.2983,4.59999,2470.11,2020-8-04T10:21:25Z
2020-08-04T08:23:40Z,42.805,6.029,13.2983,4.60007,2470.156,2020-8-04T10:24:28Z
2020-08-04T08:26:43Z,42.805,6.029,13.2975,4.59998,2470.133,2020-8-04T10:27:32Z
2020-08-04T08:29:46Z,42.805,6.029,13.2980,4.60000,2470.11,2020-8-04T10:30:35Z
2020-08-04T08:32:50Z,42.805,6.029,13.2983,4.59994,2470.133,2020-8-04T10:33:38Z
2020-08-04T08:35:53Z,42.805,6.029,13.2976,4.60009,2470.133,2020-8-04T10:36:41Z
2020-08-04T08:38:56Z,42.805,6.029,13.2982,4.60011,2470.11,2020-8-04T10:39:44Z
2020-08-04T08:41:59Z,42.805,6.029,13.2976,4.59996,2470.11,2020-8-04T10:42:48Z
2020-08-04T08:45:03Z,42.805,6.029,13.2975,4.60000,2470.147,2020-8-04T10:45:51Z
2020-08-04T08:48:06Z,42.805,6.029,13.2983,4.60001,2470.124,2020-8-04T10:48:55Z
2020-08-04T08:51:09Z,42.805,6.029,13.2976,4.60007,2470.11,2020-8-04T10:51:58Z
2020-08-04T08:54:13Z,42.805,6.029,13.2983,4.59993,2470.147,2020-8-04T10:55:01Z
2020-08-04T08:57:16Z,42.805,6.029,13.2976,4.59991,2470.11,2020-8-04T10:58:04Z
2020-08-04T09:00:19Z,42.805,6.029,13.2976,4.59999,2470.124,2020-8-04T11:01:08Z
2020-08-04T09:03:23Z,42.805,6.029,13.2976,4.59997,2470.133,2020-8-04T11:04:11Z
2020-08-04T09:06:26Z,42.805,6.029,13.2983,4.60001,2470.133,2020-8-04T11:07:14Z
2020-08-04T09:09:29Z,42.805,6.029,13.2983,4.59996,2470.1,2020-8-04T11:10:17Z
2020-08-04T09:12:32Z,42.805,6.029,13.2983,4.60002,2470.124,2020-8-04T11:13:21Z
2020-08-04T09:15:35Z,42.805,6.029,13.2977,4.59992,2470.124,2020-8-04T11:16:24Z
2020-08-04T09:18:39Z,42.805,6.029,13.2975,4.59989,2470.124,2020-8-04T11:19:27Z
2020-08-04T09:21:42Z,42.805,6.029,13.2979,4.59990,2470.124,2020-8-04T11:22:30Z
2020-08-04T09:24:45Z,42.805,6.029,13.2982,4.59991,2470.133,2020-8-04T11:25:34Z
2020-08-04T09:27:49Z,42.805,6.029,13.2985,4.59995,2470.133,2020-8-04T11:28:37Z
2020-08-04T09:30:52Z,42.805,6.029,13.2978,4.59992,2470.087,2020-8-04T11:31:40Z
2020-08-04T09:33:55Z,42.805,6.029,13.2988,4.59994,2470.087,2020-8-04T11:34:44Z
2020-08-04T09:36:59Z,42.805,6.029,13.2982,4.59998,2470.147,2020-8-04T11:37:47Z
2020-08-04T09:40:02Z,42.805,6.029,13.2983,4.59999,2470.063,2020-8-04T11:40:50Z
2020-08-04T09:43:05Z,42.805,6.029,13.2979,4.59996,2470.063,2020-8-04T11:43:53Z
2020-08-04T09:46:08Z,42.805,6.029,13.2979,4.59992,2470.087,2020-8-04T11:46:57Z
2020-08-04T09:49:12Z,42.805,6.029,13.2973,4.59989,2470.11,2020-8-04T11:50:00Z
2020-08-04T09:52:15Z,42.805,6.029,13.2977,4.59999,2470.063,2020-8-04T11:53:03Z
2020-08-04T09:55:18Z,42.805,6.029,13.2980,4.59996,2470.077,2020-8-04T11:56:06Z
2020-08-04T09:58:21Z,42.805,6.029,13.2974,4.59994,2470.063,2020-8-04T11:59:10Z
2020-08-04T10:01:24Z,42.805,6.029,13.2980,4.59996,2470.087,2020-8-04T12:02:13Z
2020-08-04T10:04:28Z,42.805,6.029,13.2982,4.60003,2470.1,2020-8-04T12:05:16Z
2020-08-04T10:07:31Z,42.805,6.029,13.2978,4.60001,2470.077,2020-8-04T12:08:19Z
2020-08-04T10:10:34Z,42.805,6.029,13.2976,4.59993,2470.087,2020-8-04T12:11:23Z
2020-08-04T10:13:37Z,42.805,6.029,13.2988,4.59992,2470.087,2020-8-04T12:14:26Z
2020-08-04T10:16:41Z,42.805,6.029,13.2986,4.59990,2470.053,2020-8-04T12:17:29Z
2020-08-04T10:19:44Z,42.805,6.029,13.2987,4.59995,2470.04,2020-8-04T12:20:32Z
2020-08-04T10:22:47Z,42.805,6.029,13.2979,4.59999,2470.1,2020-8-04T12:23:36Z
2020-08-04T10:25:51Z,42.805,6.029,13.2979,4.59990,2470.04,2020-8-04T12:26:39Z
2020-08-04T10:28:54Z,42.805,6.029,13.2982,4.59998,2470.063,2020-8-04T12:29:42Z
2020-08-04T10:31:57Z,42.805,6.029,13.2983,4.59991,2470.04,2020-8-04T12:32:45Z
2020-08-04T10:35:00Z,42.805,6.029,13.2976,4.59989,2470.053,2020-8-04T12:35:48Z
2020-08-04T10:38:03Z,42.805,6.029,13.2974,4.59999,2470.063,2020-8-04T12:38:52Z
2020-08-04T10:41:07Z,42.805,6.029,13.2974,4.59986,2470.063,2020-8-04T12:41:55Z
2020-08-04T10:44:10Z,42.805,6.029,13.2976,4.59982,2470.063,2020-8-04T12:44:58Z
2020-08-04T10:47:13Z,42.805,6.029,13.2981,4.59983,2470.063,2020-8-04T12:48:01Z
2020-08-04T10:50:16Z,42.805,6.029,13.2976,4.59991,2470.017,2020-8-04T12:51:05Z
2020-08-04T10:53:19Z,42.805,6.029,13.2976,4.59986,2470.03,2020-8-04T12:54:08Z
2020-08-04T10:56:23Z,42.805,6.029,13.2981,4.59991,2470.03,2020-8-04T12:57:11Z
2020-08-04T10:59:26Z,42.805,6.029,13.2979,4.59996,2470.017,2020-8-04T13:00:14Z
2020-08-04T11:02:29Z,42.805,6.029,13.2976,4.59991,2470.04,2020-8-04T13:03:17Z
2020-08-04T11:05:32Z,42.805,6.029,13.2979,4.60003,2470.017,2020-8-04T13:06:21Z
2020-08-04T11:08:36Z,42.805,6.029,13.2979,4.59994,2470.053,2020-8-04T13:09:24Z
2020-08-04T11:11:39Z,42.805,6.029,13.2979,4.59986,2470.04,2020-8-04T13:12:27Z
2020-08-04T11:14:42Z,42.805,6.029,13.2978,4.59994,2470.04,2020-8-04T13:15:30Z
2020-08-04T11:17:45Z,42.805,6.029,13.2982,4.59993,2470.03,2020-8-04T13:18:34Z
2020-08-04T11:20:49Z,42.805,6.029,13.2974,4.59986,2470.04,2020-8-04T13:21:37Z
2020-08-04T11:23:52Z,42.805,6.029,13.2974,4.59983,2470.017,2020-8-04T13:24:40Z
2020-08-04T11:26:55Z,42.805,6.029,13.2976,4.60000,2469.993,2020-8-04T13:27:43Z
2020-08-04T11:29:58Z,42.805,6.029,13.2990,4.59998,2470.017,2020-8-04T13:30:47Z
2020-08-04T11:33:02Z,42.805,6.029,13.2979,4.59991,2470.007,2020-8-04T13:33:50Z
2020-08-04T11:36:05Z,42.805,6.029,13.2982,4.59993,2470.053,2020-8-04T13:36:53Z
2020-08-04T11:39:08Z,42.805,6.029,13.2980,4.59991,2470.017,2020-8-04T13:39:56Z
2020-08-04T11:42:11Z,42.805,6.029,13.2979,4.59989,2470.03,2020-8-04T13:43:00Z
2020-08-04T11:45:15Z,42.805,6.029,13.2976,4.59987,2469.993,2020-8-04T13:46:03Z
2020-08-04T11:48:18Z,42.805,6.029,13.2981,4.59979,2470.007,2020-8-04T13:49:06Z
2020-08-04T11:51:21Z,42.805,6.029,13.2983,4.59988,2470.03,2020-8-04T13:52:10Z
2020-08-04T11:54:24Z,42.805,6.029,13.2975,4.59989,2470.04,2020-8-04T13:55:13Z
2020-08-04T11:57:28Z,42.805,6.029,13.2985,4.59997,2470.053,2020-8-04T13:58:16Z
2020-08-04T12:00:31Z,42.805,6.029,13.2974,4.59989,2470.03,2020-8-04T14:01:19Z
2020-08-04T12:03:34Z,42.805,6.029,13.2977,4.59983,2470.017,2020-8-04T14:04:23Z
2020-08-04T12:06:37Z,42.805,6.029,13.2978,4.59985,2469.97,2020-8-04T14:07:26Z
2020-08-04T12:09:41Z,42.805,6.029,13.2977,4.59988,2470.007,2020-8-04T14:10:29Z
2020-08-04T12:12:44Z,42.805,6.029,13.2976,4.59994,2470.017,2020-8-04T14:13:32Z
2020-08-04T12:15:47Z,42.805,6.029,13.2982,4.59996,2469.993,2020-8-04T14:16:35Z
2020-08-04T12:18:50Z,42.805,6.029,13.2976,4.59986,2470.03,2020-8-04T14:19:39Z
2020-08-04T12:21:54Z,42.805,6.029,13.2976,4.59981,2470.007,2020-8-04T14:22:42Z
2020-08-04T12:24:57Z,42.805,6.029,13.2972,4.59986,2470.017,2020-8-04T14:25:45Z
2020-08-04T12:28:00Z,42.805,6.029,13.2977,4.59983,2469.993,2020-8-04T14:28:49Z
2020-08-04T12:31:03Z,42.805,6.029,13.2982,4.59994,2469.993,2020-8-04T14:31:52Z
2020-08-04T12:34:07Z,42.805,6.029,13.2976,4.59988,2469.993,2020-8-04T14:34:55Z
2020-08-04T12:37:10Z,42.805,6.029,13.2977,4.59996,2470.03,2020-8-04T14:37:58Z
2020-08-04T12:40:13Z,42.805,6.029,13.2982,4.59990,2469.993,2020-8-04T14:41:01Z
2020-08-04T12:43:16Z,42.805,6.029,13.2978,4.59988,2470.007,2020-8-04T14:44:05Z
2020-08-04T12:46:20Z,42.805,6.029,13.2979,4.60011,2469.97,2020-8-04T14:47:08Z
2020-08-04T12:49:23Z,42.805,6.029,13.2977,4.59988,2469.993,2020-8-04T14:50:11Z
2020-08-04T12:52:26Z,42.805,6.029,13.2974,4.59988,2469.96,2020-8-04T14:53:14Z
2020-08-04T12:55:29Z,42.805,6.029,13.2975,4.59988,2469.97,2020-8-04T14:56:18Z
2020-08-04T12:58:33Z,42.805,6.029,13.2974,4.59992,2469.97,2020-8-04T14:59:21Z
2020-08-04T13:01:36Z,42.805,6.029,13.2980,4.59990,2469.96,2020-8-04T15:02:24Z
2020-08-04T13:04:39Z,42.805,6.029,13.2974,4.59986,2469.993,2020-8-04T15:05:27Z
2020-08-04T13:07:42Z,42.805,6.029,13.2976,4.59987,2469.984,2020-8-04T15:08:31Z
2020-08-04T13:10:46Z,42.805,6.029,13.2983,4.59990,2469.97,2020-8-04T15:11:34Z
2020-08-04T13:13:49Z,42.805,6.029,13.2973,4.59995,2469.993,2020-8-04T15:14:37Z
2020-08-04T13:16:52Z,42.805,6.029,13.2976,4.59994,2469.97,2020-8-04T15:17:41Z
2020-08-04T13:19:56Z,42.805,6.029,13.2976,4.59987,2469.97,2020-8-04T15:20:44Z
2020-08-04T13:22:59Z,42.805,6.029,13.2979,4.59989,2469.97,2020-8-04T15:23:47Z
2020-08-04T13:26:02Z,42.805,6.029,13.2979,4.59976,2469.984,2020-8-04T15:26:50Z
2020-08-04T13:29:05Z,42.805,6.029,13.2977,4.59983,2469.947,2020-8-04T15:29:53Z
2020-08-04T13:32:09Z,42.805,6.029,13.2982,4.59989,2469.97,2020-8-04T15:32:57Z
2020-08-04T13:35:12Z,42.805,6.029,13.2974,4.59985,2469.97,2020-8-04T15:36:00Z
2020-08-04T13:38:15Z,42.805,6.029,13.2975,4.59993,2469.97,2020-8-04T15:39:03Z
2020-08-04T13:41:18Z,42.805,6.029,13.2986,4.59993,2469.993,2020-8-04T15:42:07Z
2020-08-04T13:44:22Z,42.805,6.029,13.2973,4.59983,2469.984,2020-8-04T15:45:10Z
2020-08-04T13:47:25Z,42.805,6.029,13.2976,4.59997,2469.947,2020-8-04T15:48:13Z
2020-08-04T13:50:28Z,42.805,6.029,13.2974,4.59999,2469.984,2020-8-04T15:51:16Z
2020-08-04T13:53:31Z,42.805,6.029,13.2980,4.59993,2469.984,2020-8-04T15:54:20Z
2020-08-04T13:56:35Z,42.805,6.029,13.2971,4.59988,2469.993,2020-8-04T15:57:23Z
2020-08-04T13:59:38Z,42.805,6.029,13.2977,4.59988,2469.984,2020-8-04T16:00:26Z
2020-08-04T14:02:41Z,42.805,6.029,13.2976,4.59994,2469.97,2020-8-04T16:03:30Z
2020-08-04T14:05:44Z,42.805,6.029,13.2983,4.59988,2469.97,2020-8-04T16:06:33Z
2020-08-04T14:08:48Z,42.805,6.029,13.2979,4.59983,2469.947,2020-8-04T16:09:36Z
2020-08-04T14:11:51Z,42.805,6.029,13.2979,4.59989,2469.97,2020-8-04T16:12:39Z
2020-08-04T14:14:54Z,42.805,6.029,13.2976,4.59984,2469.984,2020-8-04T16:15:42Z
2020-08-04T14:17:57Z,42.805,6.029,13.2982,4.59992,2469.96,2020-8-04T16:18:46Z
2020-08-04T14:21:01Z,42.805,6.029,13.2976,4.59988,2469.947,2020-8-04T16:21:49Z
2020-08-04T14:24:04Z,42.805,6.029,13.2977,4.59989,2469.96,2020-8-04T16:24:52Z
2020-08-04T14:27:07Z,42.805,6.029,13.2982,4.59991,2469.984,2020-8-04T16:27:55Z
2020-08-04T14:30:10Z,42.805,6.029,13.2976,4.59987,2469.984,2020-8-04T16:30:59Z
2020-08-04T14:33:14Z,42.805,6.029,13.2977,4.59982,2469.947,2020-8-04T16:34:02Z
2020-08-04T14:36:17Z,42.805,6.029,13.2979,4.59991,2469.97,2020-8-04T16:37:05Z
2020-08-04T14:39:20Z,42.805,6.029,13.2974,4.59992,2469.947,2020-8-04T16:40:08Z
2020-08-04T14:42:23Z,42.805,6.029,13.2979,4.59994,2469.984,2020-8-04T16:43:12Z
2020-08-04T14:45:26Z,42.805,6.029,13.2974,4.59988,2470.007,2020-8-04T16:46:15Z
2020-08-04T14:48:30Z,42.805,6.029,13.2974,4.59988,2469.984,2020-8-04T16:49:18Z
2020-08-04T14:51:33Z,42.805,6.029,13.2976,4.59994,2469.937,2020-8-04T16:52:21Z
2020-08-04T14:54:36Z,42.805,6.029,13.2979,4.59993,2469.97,2020-8-04T16:55:25Z
2020-08-04T14:57:40Z,42.805,6.029,13.2977,4.59981,2469.97,2020-8-04T16:58:28Z
2020-08-04T15:00:43Z,42.805,6.029,13.2975,4.59993,2469.947,2020-8-04T17:01:31Z
2020-08-04T15:03:46Z,42.805,6.029,13.2974,4.59984,2469.947,2020-8-04T17:04:34Z
2020-08-04T15:06:49Z,42.805,6.029,13.2979,4.59991,2469.97,2020-8-04T17:07:38Z
2020-08-04T15:09:53Z,42.805,6.029,13.2979,4.59992,2469.97,2020-8-04T17:10:41Z
2020-08-04T15:12:56Z,42.805,6.029,13.2980,4.59994,2469.984,2020-8-04T17:13:44Z
2020-08-04T15:15:59Z,42.805,6.029,13.2977,4.59986,2469.97,2020-8-04T17:16:48Z